,

(GMT )
Yohin

Weather History for CXYH - June, 2013

Change the Weather History Date:

Saturday, June 1, 2013

  Actual Average Record
Temperature  
Mean Temperature 60 °F -  
Max Temperature 71 °F - - ()
Min Temperature 48 °F - - ()
Degree Days  
Heating Degree Days 6    
Growing Degree Days 10 (Base 50)    
Moisture  
Dew Point 51 °F    
Average Humidity 73    
Maximum Humidity 97    
Minimum Humidity 44    
Precipitation  
Precipitation 0.00 in - - ()
Sea Level Pressure  
Sea Level Pressure 29.91 in    
Wind  
Wind Speed 2 mph ()    
Max Wind Speed 6 mph    
Max Gust Speed -    
T = Trace of Precipitation, MM = Missing Value Source: Averaged Metar Reports

Daily Weather History Graph

Daily Weather History Graph

Search for Another Location

Airport or City:

Trip Planner

Search our weather history database for the weather conditions in past years. The results will help you decide how hot, cold, wet, or windy it might be!

Date:

Astronomy

Jun. 01, 2013 Rise Set
Actual Time 4:50 AM MDT 11:36 PM MDT
Civil Twilight 3:04 AM MDT 1:26 AM MDT
Nautical Twilight Sun does not rise Sun does not rise
Astronomical Twilight Sun does not rise Sun does not rise
Moon 2:49 AM MDT (6/1) 3:20 PM MDT (6/1)
Length of Visible Light 22h 21m
Length of Day
18h 46m
Last Quarter, 40% of the Moon is Illuminated
Jun 1
Last Quarter
Jun 8
New
Jun 16
First Quarter
Jun 23
Full
Jun 29
Last Quarter

Hourly Weather History & Observations

Time (MDT) Temp. Dew Point Humidity Pressure Visibility Wind Dir Wind Speed Gust Speed Precip Events Conditions
12:00 AM 62 °F 53 °F 64% 29.91 in - North 3.5 mph - -  
12:00 AM 62.1 °F 52.9 °F 72% 29.91 in - North 3.5 mph - N/A   Unknown
1:00 AM 61.2 °F 52.3 °F 73% 29.91 in - WNW 2.3 mph - N/A   Unknown
2:00 AM 57.2 °F 52.5 °F 84% 29.91 in - North 2.3 mph - N/A   Unknown
3:00 AM 54.1 °F 51.3 °F 90% 29.91 in - Calm Calm - N/A   Unknown
4:00 AM 51.8 °F 50.4 °F 95% 29.91 in - NNW 1.2 mph - N/A   Unknown
6:00 AM 49 °F 48 °F 95% 29.91 in - NE 1.2 mph - -  
6:00 AM 48.9 °F 48.0 °F 97% 29.91 in - NE 1.2 mph - N/A   Unknown
7:00 AM 51.3 °F 50.5 °F 97% 29.91 in - North 1.2 mph - N/A   Unknown
8:00 AM 53.6 °F 51.3 °F 92% 29.91 in - NW 1.2 mph - N/A   Unknown
9:00 AM 56.5 °F 51.8 °F 84% 29.91 in - SSE 1.2 mph - N/A   Unknown
10:00 AM 58.5 °F 52.5 °F 81% 29.90 in - SSW 1.2 mph - N/A   Unknown
11:00 AM 59.2 °F 53.8 °F 82% 29.91 in - South 1.2 mph - N/A   Unknown
12:00 PM 63 °F 53 °F 61% 29.91 in - South 1.2 mph - -  
12:00 PM 62.8 °F 52.9 °F 70% 29.91 in - South 1.2 mph - N/A   Unknown
1:00 PM 65.7 °F 53.4 °F 65% 29.91 in - SSW 2.3 mph - N/A   Unknown
2:00 PM 71.1 °F 52.5 °F 52% 29.89 in - SSW 2.3 mph - N/A   Unknown
3:00 PM 69.6 °F 48.4 °F 47% 29.90 in - WSW 5.8 mph - N/A   Unknown
4:00 PM 66.2 °F 46.8 °F 50% 29.91 in - West 4.6 mph - N/A   Unknown
5:00 PM 68.2 °F 48.0 °F 48% 29.91 in - WSW 2.3 mph - N/A   Unknown
6:00 PM 65 °F 48 °F 44% 29.91 in - West 2.3 mph - -  
6:00 PM 65.1 °F 48.4 °F 55% 29.91 in - West 2.3 mph - N/A   Unknown
7:00 PM 63.7 °F 49.6 °F 60% 29.91 in - SE 1.2 mph - N/A   Unknown
8:00 PM 61.5 °F 52.9 °F 73% 29.91 in - NNW 1.2 mph - N/A   Unknown
9:00 PM 60.4 °F 52.7 °F 76% 29.91 in - North 2.3 mph - N/A   Unknown
10:00 PM 58.6 °F 52.7 °F 81% 29.93 in - NNW 3.5 mph - N/A   Unknown
11:00 PM 56.3 °F 54.1 °F 92% 29.94 in - North 3.5 mph - N/A   Unknown